Location: Ojai
(34.4480°N, 119.2420°W)
Time: 02:19:46
(UTC-07:00)

OTV 5 (USA 277) - Visible Passes

Search period start: 17 October 2018 00:00
Search period end: 27 October 2018 00:00
Orbit: 387 x 394 km, 54.5° (Epoch: 08 September)

Date Brightness Start Highest point End Pass type
(mag) Time Alt. Az. Time Alt. Az. Time Alt. Az.
17 Oct ? 05:19:26 24° NNE 05:20:02 26° NE 05:22:46 10° E visible
18 Oct ? 05:58:21 30° WNW 05:59:34 51° SW 06:02:39 10° SSE visible
19 Oct ? 05:04:58 22° ESE 05:04:58 22° ESE 05:06:19 10° SE visible
20 Oct ? 05:44:08 15° SSW 05:44:08 15° SSW 05:45:04 10° S visible
21 Oct ? 19:41:27 10° SSW 19:43:16 26° S 19:43:16 26° S visible
22 Oct ? 18:46:25 10° SSE 18:48:10 14° ESE 18:49:46 11° E visible
22 Oct ? 20:20:53 10° WSW 20:22:12 20° W 20:22:12 20° W visible
23 Oct ? 19:24:12 10° SW 19:27:22 88° SE 19:28:34 36° NE visible
24 Oct ? 20:04:42 10° W 20:07:01 18° NW 20:07:11 18° NNW visible
25 Oct ? 19:07:26 10° WSW 19:10:27 39° NW 19:13:17 11° NNE visible
26 Oct ? 19:49:27 10° NW 19:50:16 11° NNW 19:51:07 10° NNW visible
